F1AGU-13 Weather Reports


Display with metric or nautical units.
time (UTC)temp
F
wind
direction
speed
MPH
gust
MPH
rain 1hr
in
rain 24hr
in
rain mn
in
humidity
%
barometer
mb
20260506174517 48 225 2.0 4.0 0.00 1.17 0.57 87 1010.6
20260506173517 48 0.0 2.0 0.00 1.17 0.57 86 1010.5
20260506172516 49 0.0 0.0 0.00 1.17 0.57 85 1010.4
20260506171516 50 0.0 2.0 0.00 1.17 0.57 83 1010.5
20260506170517 52 203 3.0 6.0 0.00 1.17 0.57 79 1010.7
20260506165516 53 315 1.0 3.0 0.00 1.17 0.57 80 1010.7
20260506164517 52 338 1.0 2.0 0.00 1.17 0.57 79 1010.5
20260506163516 53 338 3.0 4.0 0.00 1.17 0.57 77 1010.7
20260506162516 52 338 3.0 6.0 0.00 1.17 0.57 80 1010.5
20260506161516 53 315 5.0 9.0 0.00 1.17 0.57 79 1010.8
20260506160516 52 338 3.0 5.0 0.00 1.17 0.57 81 1010.5
20260506155516 51 315 3.0 5.0 0.00 1.17 0.57 81 1010.5
20260506154516 51 315 5.0 6.0 0.00 1.17 0.57 82 1010.6
20260506153516 50 338 4.0 6.0 0.00 1.17 0.57 80 1010.6
20260506152517 50 0 5.0 8.0 0.00 1.17 0.57 80 1010.4
20260506151516 49 338 4.0 6.0 0.00 1.17 0.57 81 1010.5
20260506150516 49 338 3.0 5.0 0.00 1.17 0.57 82 1010.5
20260506145516 49 338 5.0 8.0 0.00 1.17 0.57 82 1010.6
20260506144516 49 338 4.0 7.0 0.00 1.17 0.57 82 1010.5
20260506143516 49 338 4.0 6.0 0.00 1.17 0.57 83 1010.7
20260506142517 49 338 5.0 9.0 0.00 1.17 0.57 84 1010.5
20260506141516 49 0 5.0 9.0 0.00 1.17 0.57 83 1010.8
20260506140516 49 0 7.0 12.0 0.00 1.17 0.57 83 1010.7
20260506135516 51 315 6.0 13.0 0.00 1.17 0.57 84 1010.9
20260506134516 51 338 3.0 7.0 0.00 1.17 0.57 77 1011.0
20260506133516 50 203 4.0 7.0 0.00 1.17 0.57 76 1010.8
20260506132516 50 180 3.0 7.0 0.00 1.17 0.57 74 1010.9
20260506131516 51 225 4.0 6.0 0.00 1.17 0.57 77 1011.2
20260506130516 51 225 3.0 6.0 0.00 1.17 0.57 77 1010.9
20260506125516 51 203 6.0 11.0 0.00 1.17 0.57 82 1010.9
20260506124516 50 203 5.0 9.0 0.01 1.17 0.57 83 1011.0
20260506123516 49 203 5.0 8.0 0.01 1.17 0.57 88 1010.8
20260506122516 48 203 6.0 9.0 0.02 1.17 0.57 86 1010.8
20260506121516 48 180 5.0 10.0 0.02 1.17 0.57 85 1010.6
20260506120516 46 180 4.0 7.0 0.05 1.19 0.57 91 1010.7
20260506115516 45 203 4.0 6.0 0.07 1.22 0.57 91 1010.5
20260506114517 45 203 6.0 9.0 0.07 1.27 0.56 90 1010.4
20260506113516 45 203 6.0 9.0 0.08 1.33 0.56 92 1010.5
20260506112516 44 203 5.0 9.0 0.07 1.35 0.55 92 1010.6
20260506111516 44 203 7.0 12.0 0.07 1.39 0.54 92 1010.5
20260506110516 44 203 4.0 9.0 0.06 1.42 0.52 93 1010.3
20260506105516 45 203 4.0 11.0 0.04 1.43 0.50 92 1010.3
20260506104516 45 180 4.0 9.0 0.06 1.44 0.49 91 1010.2
20260506103516 46 203 7.0 11.0 0.07 1.44 0.48 91 1010.1
20260506102516 46 203 6.0 12.0 0.09 1.44 0.48 91 1010.0
20260506101516 47 248 2.0 5.0 0.08 1.43 0.47 92 1010.1
20260506100516 46 135 4.0 9.0 0.08 1.43 0.46 91 1009.7
20260506095516 46 203 4.0 9.0 0.08 1.43 0.46 89 1009.8
20260506094516 45 203 4.0 10.0 0.06 1.42 0.43 92 1009.5
20260506093516 45 180 7.0 10.0 0.06 1.39 0.41 91 1009.4
20260506092516 45 135 5.0 9.0 0.06 1.38 0.39 89 1009.2
20260506091516 45 158 6.0 11.0 0.09 1.39 0.39 89 1009.1
20260506090516 45 135 8.0 18.0 0.09 1.38 0.39 89 1009.1
20260506085516 45 135 6.0 15.0 0.09 1.38 0.38 91 1008.9
20260506084516 45 180 9.0 22.0 0.09 1.37 0.37 89 1008.9
20260506083516 45 180 7.0 11.0 0.09 1.35 0.35 93 1008.7
20260506082516 45 203 3.0 7.0 0.06 1.33 0.33 95 1008.7
20260506081515 45 180 8.0 17.0 0.04 1.30 0.30 95 1008.4
20260506080516 45 203 3.0 9.0 0.05 1.29 0.29 98 1008.2
20260506073515 45 338 2.0 4.0 0.11 1.27 0.27 98 1008.3
20260506072515 45 0.0 2.0 0.14 1.27 0.27 98 1008.2
20260506071515 44 0.0 0.0 0.15 1.26 0.26 98 1008.1
20260506070515 44 0.0 2.0 0.15 1.24 0.24 98 1008.0
20260506062515 44 0.0 1.0 0.07 1.13 0.13 98 1007.7
20260506061515 44 315 2.0 3.0 0.06 1.11 0.11 98 1007.8
20260506060515 44 0.0 2.0 0.04 1.09 0.09 98 1007.9
20260506050517 44 0.0 2.0 0.03 1.06 0.06 98 1007.8
20260506044517 44 113 1.0 3.0 0.03 1.06 0.06 98 1008.0
20260506043517 43 0.0 1.0 0.02 1.05 0.04 98 1007.7
20260506042517 43 0.0 0.0 0.01 1.04 0.03 98 1007.7
20260506041517 43 180 1.0 2.0 0.00 1.05 0.02 98 1007.9
20260506040517 43 113 1.0 2.0 0.00 1.06 0.02 98 1007.9
20260506035517 43 113 1.0 2.0 0.00 1.06 0.02 98 1007.8
20260506034517 43 0.0 1.0 0.00 1.08 0.02 98 1007.9
20260506033517 43 0.0 0.0 0.01 1.11 0.02 98 1007.8
20260506032517 43 180 1.0 2.0 0.01 1.13 0.02 98 1007.9
20260506031517 43 113 1.0 2.0 0.01 1.13 0.02 98 1007.9
20260506030517 43 0.0 0.0 0.01 1.15 0.02 97 1007.9
20260506025517 43 0.0 0.0 0.01 1.16 0.02 97 1008.0
20260506024519 43 0.0 0.0 0.01 1.19 0.02 97 1008.0
20260506023517 43 0.0 0.0 0.00 1.22 0.02 97 1008.0
20260506022517 43 0.0 0.0 0.00 1.25 0.02 98 1008.1
20260506021517 43 0.0 0.0 0.00 1.29 0.02 97 1008.1
20260506020517 43 113 1.0 3.0 0.00 1.31 0.02 97 1008.2
20260506015517 43 203 2.0 3.0 0.00 1.35 0.02 97 1008.4
20260506014517 43 203 1.0 2.0 0.00 1.37 0.02 97 1008.2
20260506013517 43 135 1.0 2.0 0.00 1.39 0.02 98 1008.4
20260506012517 43 135 1.0 3.0 0.00 1.42 0.02 97 1008.8
20260506011517 43 180 1.0 2.0 0.00 1.44 0.02 97 1008.7
20260506010517 43 225 1.0 3.0 0.00 1.46 0.02 97 1008.7
20260506005517 43 135 1.0 3.0 0.00 1.49 0.02 97 1008.8
20260506004517 43 0.0 1.0 0.00 1.50 0.02 97 1008.5
20260506003517 43 0.0 1.0 0.00 1.54 0.02 97 1008.7
20260506002517 44 0.0 1.0 0.00 1.59 0.02 97 1009.1
20260506001517 44 0.0 2.0 0.00 1.65 0.02 97 1009.3
20260506000517 44 135 1.0 2.0 0.00 1.72 0.02 97 1009.5
20260505235517 44 0.0 0.0 0.01 1.77 0.02 97 1009.5
20260505234517 44 135 2.0 4.0 0.01 1.80 0.02 97 1009.7
20260505233517 45 0.0 0.0 0.01 1.84 0.02 97 1010.0
20260505232517 45 0.0 1.0 0.01 1.86 0.02 97 1010.1
20260505231517 45 180 1.0 3.0 0.01 1.87 0.02 97 1010.4
20260505230516 45 135 1.0 2.0 0.01 1.89 0.02 97 1010.5
20260505225517 45 203 2.0 3.0 0.02 1.89 0.01 97 1010.7
20260505224517 45 180 1.0 4.0 0.05 1.90 0.01 97 1010.6
20260505223517 45 225 2.0 3.0 0.06 1.90 0.01 96 1010.6
20260505222517 45 45 3.0 5.0 0.07 1.90 0.01 96 1010.5
20260505221516 45 315 1.0 3.0 0.09 1.90 0.01 96 1010.6
20260505220516 46 315 2.0 3.0 0.09 1.90 0.01 96 1010.9
20260505215517 45 0.0 1.0 0.07 1.87 1.87 96 1011.3
20260505214517 46 180 2.0 3.0 0.05 1.85 1.85 96 1011.4
20260505213517 46 293 2.0 4.0 0.03 1.83 1.83 96 1011.5
20260505212517 46 0 1.0 3.0 0.04 1.83 1.83 96 1011.6
20260505211517 46 135 2.0 3.0 0.08 1.81 1.81 96 1011.5
20260505210517 46 180 2.0 4.0 0.11 1.80 1.80 96 1011.7
20260505205517 46 0.0 2.0 0.15 1.80 1.80 96 1011.5
20260505204517 46 135 2.0 3.0 0.19 1.80 1.80 95 1011.5
20260505203517 46 0 1.0 2.0 0.21 1.80 1.80 95 1011.5
20260505202517 46 90 2.0 4.0 0.20 1.79 1.79 95 1011.8
20260505201517 46 225 2.0 3.0 0.15 1.73 1.73 95 1012.0
20260505200517 46 68 1.0 4.0 0.11 1.69 1.69 94 1011.5
20260505195517 46 225 2.0 6.0 0.07 1.65 1.65 94 1011.2
20260505194517 46 203 5.0 7.0 0.03 1.61 1.61 94 1011.3
20260505193517 46 203 5.0 8.0 0.06 1.59 1.59 94 1010.8
20260505192517 46 203 3.0 8.0 0.18 1.60 1.58 93 1010.7
20260505191517 46 180 4.0 9.0 0.23 1.61 1.58 93 1010.5
20260505190517 46 180 4.0 7.0 0.27 1.61 1.58 92 1010.2
20260505185517 46 68 1.0 3.0 0.29 1.62 1.58 90 1010.2
20260505184517 47 135 1.0 4.0 0.29 1.65 1.58 89 1010.6
20260505183517 48 203 8.0 13.0 0.24 1.61 1.54 86 1011.0
20260505182517 51 135 11.0 23.0 0.11 1.48 1.40 85 1011.0
20260505181517 51 158 6.0 10.0 0.06 1.43 1.35 85 1010.6
20260505180517 52 135 6.0 12.0 0.02 1.40 1.31 81 1010.3
20260505175516 53 180 4.0 10.0 0.00 1.39 1.29 81 1010.3